Regional Weather Roundup
Issued by NWS Goodland, KS

Home | Current Version | Previous Version | Graphics & Text | Print | Product List | Glossary On
Versions: 1 2 3 4 5 6 7 8 9 10 11 12 13 14 15 16 17 18 19 20 21 22 23 24 25 26 27 28 29 30 31 32 33 34 35 36 37 38 39 40 41 42 43 44 45 46 47 48 49 50
000
ASUS43 KGLD 201859
RWRGLD

GOODLAND FORECAST AREA HOURLY WEATHER ROUNDUP
NATIONAL WEATHER SERVICE GOODLAND KS
1200 PM MST MON FEB 20 2017

...OFFICIAL OBSERVATIONS...

CITY           SKY/WX    TMP DP  RH WIND       PRES   REMARKS
GOODLAND KS    SUNNY     60  21  22 NW29G39   29.94S
HILL CITY KS   SUNNY     64  38  38 N30G38    29.85S
IMPERIAL NEB   SUNNY     59  26  28 N26G33    29.91S
MCCOOK NEB     SUNNY     62  35  36 N21G33    29.87R
AKRON CO       SUNNY     58  11  15 N17G30    29.97F
BURLINGTON CO  SUNNY     59  13  16 NW30G43   29.96F
LIMON CO       SUNNY     55   9  16 NW21G29   30.02F
$$

...UNOFFICIAL OBSERVATIONS...

CITY           SKY/WX    TMP DP  RH WIND       PRES   REMARKS
LENORA KS        N/A     61  32  33 NW15        N/A
NORTON KS      SUNNY     61  30  31 N24G33    29.84
SHARON SPRINGS   N/A     60  19  20 NW22G36     N/A
TRENTON NEB      N/A     59  32  36 NW17G24     N/A
KIT CARSON CO    N/A     57  19  22 MISG        N/A
YUMA CO        FAIR      55  14  19 NW21G30   29.96F
$$




USA.gov is the U.S. government's official web portal to all federal, state and local government web resources and services.